Regional Weather Roundup
Issued by NWS

Home | Current Version | Previous Version | Text Only | Print | Product List | Glossary Off
Versions: 1 2 3 4 5 6 7 8 9 10 11 12 13 14 15 16 17 18 19 20 21 22 23 24 25 26 27 28 29 30 31 32 33 34 35 36 37 38 39 40 41 42 43 44 45 46 47 48 49 50

000
ASUS43 KFSD 191602
RWRSD

WEATHER ROUNDUP FOR SOUTH DAKOTA
NATIONAL WEATHER SERVICE SIOUX FALLS SD
1100 AM CDT FRI SEP 19 2014

NOTE: "FAIR" INDICATES FEW OR NO CLOUDS BELOW 12,000 FEET WITH NO
SIGNIFICANT WEATHER AND/OR OBSTRUCTIONS TO VISIBILITY.


SDZ001>005-009-010-012>017-191700-
NORTHWEST AND NORTH CENTRAL SOUTH DAKOTA

CITY           SKY/WX    TMP DP  RH WIND       PRES   REMARKS
FAITH            N/A     72  57  59 W18G24    29.75S
MOBRIDGE       MOSUNNY   69  65  86 CALM      29.65S
$$

SDZ012>016-024>037-041>051-057-063-072>074-191700-
SOUTHWEST AND SOUTH CENTRAL SOUTH DAKOTA

CITY           SKY/WX    TMP DP  RH WIND       PRES   REMARKS
RAPID CTY ARPT CLOUDY    76  54  46 CALM      29.83S
PIERRE         PTSUNNY   72  63  73 W13       29.71R
CUSTER         CLOUDY    68  48  48 VRB3      29.98S
ELLSWORTH AFB  CLOUDY    75  53  45 W9        29.83S
PHILIP           N/A     77  56  48 W10       29.77R
PINE RIDGE     MOSUNNY   72  57  59 W8        29.86S
WINNER         FAIR      76  62  62 W13       29.74R
$$

SDZ004>011-016>023-039-040-191700-
NORTHEAST SOUTH DAKOTA

CITY           SKY/WX    TMP DP  RH WIND       PRES   REMARKS
ABERDEEN       CLOUDY    65  63  93 S10       29.66S
WATERTOWN      CLOUDY    64  62  93 S15       29.70R
$$

SDZ017-020-022-023-036>040-048>070-191700-
SOUTHEAST SOUTH DAKOTA

CITY           SKY/WX    TMP DP  RH WIND       PRES   REMARKS
SIOUX FALLS    PTSUNNY   73  63  70 S21G29    29.74F
HURON          PTSUNNY   73  63  70 SW14      29.68S
CHAMBERLAIN    PTSUNNY   72  64  74 W9        29.71S
MITCHELL       SUNNY     76  65  68 SW12G22   29.69S
YANKTON        SUNNY     73  64  73 S21G26    29.75F
$$

ABBREVIATIONS USED IN REMARKS
   TC - TEMPERATURE IN CELSIUS
  WCI - WIND CHILL INDEX
   HX - HEAT INDEX
  VSB - VISIBILITY




USA.gov is the U.S. government's official web portal to all federal, state and local government web resources and services.